SCP
-0 -0 -0 0 0 0 0 0 0 0 0 0 0 0 0 0 0 0 0 0 0 0 0 0 0 0 0 0 0 0 0 0 0 0 0 0 0 0 0 0 0 0 0 0 0 0 0 0 0
-0 -0 -0 0 0 0 0 0 0 0 0 0 0 0 0 0 0 0 0 0 0 0 0 0 0 0 0 0 0 0 0 0 0 0 0 0 0 0 0 0 0 0 0 0 0 0 0 0 0
-0 -0 -0 0 0 0 0 0 0 0 0 0 0 0 0 0 0 0 0 0 0 0 0 0 0 0 0 0 0 0 0 0 0 0 0 0 0 0 0 0 0 0 0 0 0 0 0 0 0
-0 -0 0 0 0 0 0 0 0 0 0 0 0 0 0 0 0 0 0 0 0 0 0 0 0 0 0 0 0 0 0 0 0 0 0 0 0 0 0 0 0 0 0 0 0 0 0 0 0
0 0 0 0 0 0 0 0 0 0 0 0 0 0 0 0 0 0 0 0 0 0 0 0 0 0 0 0 0 0 0 0 0 0 0 0 0 0 0 0 0 0 0 0 0 0 0 0 0
0 0 0 0 0 0 0 0 0 0 0 0 0 0 0 0 0 0 0 0 0 0 0 0 0 0 0 0 0 0 0 0 0 0 0 0 0 0 0 0 0 0 0 0 0 0 0 0 0
0 0 0 0 0 0 0 0 0 0 0 0 0 0 0 0 0 0 0 0 0 0 0 0 0 0 0 0 0 0 0 0 0 0 0 0 0 0 0 0 0 0 0 0 0 0 0 0 0
0 0 0 0 0 0 0 0 0 0 0 0 0 0 0 0 0 0 0 0 0 0 0 0 0 0 0 0 0 0 0 0 0 0 0 0 0 0 0 0 0 0 0 0 0 0 0 0 0
0 0 0 0 0 0 0 0 0 0 0 0 0 0 0 0 0 0 0 0 0 0 0 0 0 0 0 0 0 0 0 0 0 0 0 0 0 0 0 0 0 0 0 0 0 0 0 0 0
0 0 0 0 0 0 0 0 0 0 0 0 0 0 0 0 0 0 0 0 0 0 0 0 0 0 0 0 0 0 0 0 0 0 0 0 0 0 0 0 0 0 0 0 0 0 0 0 0
0 0 0 0 0 0 0 0 0 0 0 0 0 0 0 0 0 0 0 0 0 0 0 0 0 0 0 0 0 0 0 0 0 0 0 0 0 0 0 0 0 0 0 0 0 0 0 0 0
0 0 0 0 0 0 0 0 0 0 0 0 0 0 0 0 0 0 0 0 0 0 0 0 0 0 0 0 0 0 0 0 0 0 0 0 0 0 0 0 0 0 0 0 0 0 0 0 0
0 0 0 0 0 0 0 0 0 0 0 0 0 0 0 0 0 0 0 0 0 0 0 0 0 0 0 0 0 0 0 0 0 0 0 0 0 0 0 0 0 0 0 0 0 0 0 0 0
0 0 0 0 0 0 0 0 0 0 0 0 0 0 0 0 0 0 0 0 0 0 0 0 0 0 0 0 0 0 0 0 0 0 0 0 0 0 0 0 0 0 0 0 0 0 0 0 0
0 0 0 0 0 0 0 0 0 0 0 0 0 0 0 0 0 0 0 0 0 0 0 0 0 0 0 0 0 0 0 0 0 0 0 0 0 0 0 0 0 0 0 0 0 0 0 0 0
0 0 0 0 0 0 0 0 0 0 0 0 0 0 0 0 0 0 0 0 0 0 0 0 0 0 0 0 0 0 0 0 0 0 0 0 0 0 0 0 0 0 0 0 0 0 0 0 0
0 0 0 0 0 0 0 0 0 0 0 0 0 0 0 0 0 0 0 0 0 0 0 0 0 0 0 0 0 0 0 0 0 0 0 0 0 0 0 0 0 0 0 0 0 0 0 0 0
0 0 0 0 0 0 0 0 0 0 0 0 0 0 0 0 0 0 0 0 0 0 0 0 0 0 0 0 0 0 0 0 0 0 0 0 0 0 0 0 0 0 0 0 0 0 0 0 0
0 0 0 0 0 0 0 0 0 0 0 0 0 0 0 0 0 0 0 0 0 0 0 0 0 0 0 0 0 0 0 0 0 0 0 0 0 0 0 0 0 0 0 0 0 0 0 0 0
0 0 0 0 0 0 0 0 0 0 0 0 0 0 0 0 0 0 0 0 0 0 0 0 0 0 0 0 0 0 0 0 0 0 0 0 0 0 0 0 0 0 0 0 0 0 0 0 0
0 0 0 0 0 0 0 0 0 0 0 0 0 0 0 0 0 0 0 0 0 0 0 0 0 0 0 0 0 0 0 0 0 0 0 0 0 0 0 0 0 0 0 0 0 0 0 0 0
0 0 0 0 0 0 0 0 0 0 0 0 0 0 0 0 0 0 0 0 0 0 0 0 0 0 0 0 0 0 0 0 0 0 0 0 0 0 0 0 0 0 0 0 0 0 0 0 0
0 0 0 0 0 0 0 0 0 0 0 0 0 0 0 0 0 0 0 0 0 0 0 0 0 0 0 0 0 0 0 0 0 0 0 0 0 0 0 0 0 0 0 0 0 0 0 0 0
0 0 0 0 0 0 0 0 0 0 0 0 0 0 0 0 0 0 0 0 0 0 0 0 0 0 0 0 0 0 0 0 0 0 0 0 0 0 0 0 0 0 0 0 0 0 0 0 0
0 0 0 0 0 0 0 0 0 0 0 0 0 0 0 0 0 0 0 0 0 0 0 0 0 0 0 0 0 0 0 0 0 0 0 0 0 0 0 0 0 0 0 0 0 0 0 0 0
0 0 0 0 0 0 0 0 0 0 0 0 0 0 0 0 0 0 0 0 0 0 0 0 0 0 0 0 0 0 0 0 0 0 0 0 0 0 0 0 0 0 0 0 0 0 0 0 0
0 0 0 0 0 0 0 0 0 0 0 0 0 0 0 0 0 0 0 0 0 0 0 0 0 0 0 0 0 0 0 0 0 0 0 0 0 0 0 0 0 0 0 0 0 0 0 0 0
0 0 0 0 0 0 0 0 0 0 0 0 0 0 0 0 0 0 0 0 0 0 0 0 0 0 0 0 0 0 0 0 0 0 0 0 0 0 0 0 0 0 0 0 0 0 0 0 0
0 0 0 0 0 0 0 0 0 0 0 0 0 0 0 0 0 0 0 0 0 0 0 0 0 0 0 0 0 0 0 0 0 0 0 0 0 0 0 0 0 0 0 0 0 0 0 0 0
0 0 0 0 0 0 0 0 0 0 0 0 0 0 0 0 0 0 0 0 0 0 0 0 0 0 0 0 0 0 0 0 0 0 0 0 0 0 0 0 0 0 0 0 0 0 0 0 0
Wind_Speed
4 2 2 4 7 5 2 4 2 3 3 2 2 4 5 6 6 6 2 8 6 10 14 18 22 20 19 17 16 14 13 12 11 10 10 9 9 9 9 9 10 9 10 10 10 11 11 12 12
1 1 4 6 6 1 4 4 4 5 3 1 1 2 1 5 4 3 2 8 8 12 13 12 21 21 19 18 16 15 14 13 12 11 10 9 9 8 8 8 9 8 9 9 9 10 10 11 11
1 3 5 5 4 4 4 3 4 3 1 0 0 1 2 4 3 3 4 9 9 11 12 12 23 21 20 18 17 16 15 14 12 11 10 9 9 9 8 8 8 8 8 8 8 9 9 9 10
2 5 6 5 2 4 4 5 3 3 0 1 1 3 5 3 1 1 5 10 11 11 11 12 23 21 20 19 17 16 15 14 13 12 11 10 10 9 8 8 8 7 7 7 7 7 8 8 8
4 5 5 2 3 4 4 5 2 3 1 1 2 3 6 1 2 3 7 10 12 11 10 10 22 21 20 19 18 17 16 15 14 13 12 11 10 9 8 8 7 7 6 6 6 6 6 6 7
5 5 4 2 5 5 5 3 1 2 2 1 3 3 7 1 2 3 7 8 8 10 9 8 21 21 20 19 18 17 16 15 14 14 13 12 11 10 9 8 7 6 6 5 5 5 5 5 5
5 4 3 3 4 5 4 2 3 2 3 4 5 4 6 1 1 4 6 6 7 7 8 7 9 15 20 20 19 18 17 16 15 14 13 12 11 11 10 9 8 7 6 5 4 4 3 3 3
5 5 2 2 3 6 4 1 2 4 5 2 6 6 7 1 4 6 6 5 6 6 8 8 6 8 9 12 18 18 17 17 16 15 14 13 12 11 11 9 9 8 7 6 4 3 2 2 1
4 4 3 4 4 6 3 2 3 1 2 2 5 6 3 3 6 7 5 4 6 8 7 8 7 6 8 8 12 15 16 16 15 13 14 11 4 3 4 7 9 9 8 7 6 5 4 2 1
5 3 7 6 5 4 3 3 3 3 4 4 5 4 2 4 7 8 9 12 13 14 11 9 8 7 7 7 7 6 6 7 7 5 6 4 4 4 4 7 10 10 9 8 8 7 4 2 2
3 6 5 5 5 3 3 4 3 3 7 8 9 7 3 5 7 9 10 11 15 12 12 12 10 7 7 6 5 3 3 4 5 6 5 5 4 3 3 2 3 2 3 0 1 1 2 2 1
2 5 4 4 2 3 4 4 3 6 11 5 4 4 4 8 11 14 14 12 8 8 12 11 10 8 7 6 5 5 4 4 4 5 6 5 3 3 3 2 2 1 1 1 1 1 1 1 2
3 4 3 4 5 5 5 6 5 9 8 5 4 3 5 9 11 11 9 8 8 9 10 10 10 10 7 6 5 5 5 5 5 5 5 6 5 5 4 3 3 3 2 2 3 3 3 3 4
2 4 6 7 5 3 3 3 3 8 3 4 5 5 6 7 9 8 9 9 10 11 10 10 11 10 8 8 6 5 5 5 5 5 6 7 6 6 5 5 4 4 4 4 4 4 4 4 4
2 5 8 3 1 1 1 5 4 5 4 6 7 7 8 6 5 8 9 10 10 8 8 10 10 10 10 9 8 5 5 5 5 5 7 8 7 7 7 6 6 5 5 5 4 4 3 4 5
2 3 4 5 3 2 1 7 5 3 4 6 7 8 8 8 6 6 6 7 7 7 7 9 10 10 10 9 7 5 5 6 5 5 6 8 8 8 7 7 7 6 5 5 5 4 4 5 5
3 2 3 7 3 2 1 8 7 4 4 4 6 7 8 8 9 9 6 3 3 6 7 8 9 10 9 8 5 5 5 6 5 5 6 8 9 9 8 8 7 6 5 6 7 6 5 6 7
3 3 3 5 4 3 4 9 11 6 2 1 3 5 7 8 9 9 8 6 2 2 5 6 7 7 7 5 4 3 4 4 4 6 7 8 8 10 9 8 7 7 6 6 6 8 7 6 6
1 3 6 7 4 3 5 8 10 6 1 2 3 5 7 7 7 8 8 7 6 4 2 3 5 5 5 4 4 4 5 4 4 6 7 9 9 10 10 9 8 8 9 11 10 7 7 7 3
2 3 6 6 2 2 5 7 5 2 1 1 2 4 6 7 10 11 10 9 7 5 2 1 3 5 5 4 4 3 3 3 4 5 7 9 10 11 10 11 9 9 9 9 9 9 5 5 6
4 5 5 4 5 2 4 5 2 2 2 2 3 3 5 6 7 8 9 8 7 7 4 2 1 3 4 4 3 2 1 1 1 4 6 8 9 10 11 12 11 10 10 10 12 12 10 9 7
5 5 4 2 2 4 3 3 4 1 1 1 1 3 4 5 5 6 7 8 8 6 4 3 2 1 2 4 4 5 4 5 6 4 4 6 8 10 11 12 12 11 10 12 12 12 11 10 9
6 1 2 1 2 2 1 2 8 2 4 5 3 1 2 3 4 5 6 5 6 6 5 5 4 3 2 3 4 5 6 6 4 3 5 6 6 9 11 11 11 12 11 12 12 11 12 11 12
4 5 4 4 4 2 2 3 7 5 7 5 4 3 2 1 3 4 4 5 6 6 6 5 5 4 2 1 2 4 7 7 6 6 6 5 4 5 9 10 10 11 11 12 13 12 12 12 13
3 4 4 4 3 4 1 3 9 5 4 6 8 7 4 2 2 3 4 6 6 7 6 6 6 5 3 2 2 4 5 6 7 7 6 6 5 5 7 8 9 10 11 12 11 11 12 14 14
4 6 5 3 3 5 3 6 8 4 4 4 6 6 4 2 1 1 2 4 4 5 5 5 5 4 4 3 3 3 4 3 4 6 5 6 5 6 7 7 9 11 11 12 11 10 13 12 14
5 3 4 6 2 3 6 7 9 0 3 4 5 5 4 2 1 1 2 3 3 4 4 4 5 4 5 4 4 4 4 3 5 6 5 5 6 6 7 7 8 9 10 11 11 10 13 12 13
4 8 5 4 2 4 6 6 5 3 3 3 4 4 3 2 1 1 2 2 2 3 3 4 4 4 4 5 4 4 5 4 5 5 6 6 7 6 7 7 8 8 9 10 10 10 12 13 13
4 4 5 4 4 4 4 8 6 6 6 6 5 4 2 2 1 0 1 2 2 3 4 4 4 4 5 5 5 5 6 5 5 5 6 6 7 7 7 8 8 9 9 9 9 11 11 13 14
5 7 8 5 5 5 4 10 3 3 4 5 4 2 1 2 1 1 1 2 3 4 5 5 5 5 5 5 5 6 6 6 6 7 7 7 7 7 8 8 9 9 9 9 10 12 12 13 14
Wind_Direction
352 24 65 56 53 49 280 259 243 245 240 241 179 167 173 180 180 229 268 156 155 155 170 184 175 175 175 175 172 168 165 162 158 153 146 139 131 123 115 107 98 93 88 82 79 77 75 75 75
10 78 55 60 82 57 278 259 251 237 247 343 83 111 191 246 225 241 214 177 160 159 168 181 175 176 177 177 175 172 170 169 165 161 154 148 142 136 126 117 109 102 94 89 84 81 79 78 78
134 53 80 75 112 182 250 260 257 263 232 177 241 242 228 241 229 239 201 166 153 161 168 181 176 177 179 179 178 176 175 173 170 168 163 159 154 148 138 129 121 113 105 97 90 85 83 82 82
92 50 56 77 198 220 233 270 284 279 291 184 190 286 270 246 250 239 153 157 154 163 169 183 177 179 181 181 181 180 179 177 176 174 171 169 165 158 150 141 133 126 118 109 99 90 85 85 86
61 76 62 29 268 261 255 271 258 219 231 250 172 263 273 255 61 119 148 162 162 163 170 185 179 182 183 184 184 183 183 183 182 180 179 177 173 167 161 155 149 143 134 123 111 99 90 84 87
58 67 85 266 271 279 274 261 186 192 245 250 190 241 262 178 123 151 157 161 163 161 167 181 184 185 186 187 187 187 188 188 188 187 186 185 182 177 173 171 166 161 152 142 129 115 101 89 85
101 103 167 225 273 291 273 181 183 202 249 239 189 210 272 287 137 143 146 143 152 161 168 183 190 187 189 190 191 191 192 192 193 192 192 191 189 187 186 183 181 179 173 163 152 137 120 102 88
117 104 154 247 260 275 271 256 231 206 245 226 164 198 250 332 106 112 115 130 151 168 179 186 194 185 185 189 195 194 195 196 197 197 196 196 196 196 196 192 194 194 192 187 183 175 162 137 106
85 83 229 234 224 258 263 273 276 245 252 249 214 222 252 108 119 115 120 149 173 187 194 192 194 188 180 180 195 196 198 199 200 199 199 196 183 176 194 190 202 207 207 207 209 209 209 200 308
91 161 230 220 207 231 265 252 267 290 282 275 272 259 131 146 160 167 179 186 192 197 196 195 194 188 179 181 187 187 188 192 189 177 185 160 139 154 158 196 208 218 220 223 225 225 230 176 57
155 200 232 241 226 237 266 258 228 221 263 247 253 268 189 184 199 205 205 200 202 197 195 197 194 186 181 179 175 173 171 171 171 166 156 139 139 152 154 160 214 248 255 307 306 346 80 107 142
197 241 232 256 236 226 235 251 244 215 238 254 254 262 200 207 214 215 215 214 201 195 200 196 191 187 188 179 175 170 170 171 169 165 156 147 149 159 160 169 175 160 124 153 149 147 163 188 207
231 266 262 255 271 254 253 248 255 258 270 308 309 290 248 234 231 231 230 224 202 205 200 196 191 192 186 182 180 178 179 177 171 165 167 163 165 173 177 184 188 190 178 187 200 207 220 233 239
273 287 294 283 270 249 246 271 225 275 333 355 357 333 300 262 248 243 236 229 213 208 199 191 194 193 186 191 190 185 179 174 171 176 177 177 176 177 181 191 198 202 198 198 203 212 221 233 239
319 320 318 295 302 284 274 314 238 276 342 353 350 338 331 320 286 253 243 233 222 210 194 191 194 190 192 196 193 185 177 175 183 185 182 185 185 185 188 195 205 208 200 200 205 219 225 241 242
40 13 320 304 338 330 355 291 273 348 1 345 344 343 342 337 332 301 276 249 223 202 188 189 195 193 197 198 193 185 179 185 191 186 187 194 195 190 192 203 214 204 193 196 205 210 220 234 238
19 338 289 303 330 351 341 269 276 344 343 336 345 349 349 352 358 351 338 304 223 193 182 182 191 190 192 191 188 187 183 196 195 191 197 201 202 199 201 213 216 194 197 205 217 211 208 227 236
250 264 276 279 303 335 273 270 293 322 304 332 0 4 3 11 359 350 3 13 45 153 173 179 189 185 174 171 174 184 204 211 204 204 209 203 206 205 209 219 215 193 201 213 215 223 214 222 234
202 238 267 266 282 298 273 284 299 317 41 83 41 20 14 10 355 14 25 31 42 56 123 177 181 176 160 160 176 194 220 216 219 219 216 210 211 208 212 224 215 203 215 222 217 216 222 230 205
208 256 271 288 300 288 301 297 302 357 53 89 69 37 24 14 12 15 23 30 33 31 31 161 185 180 179 178 166 178 188 211 217 220 223 218 217 215 217 223 225 215 221 226 219 207 210 220 184
221 215 239 269 327 11 336 337 355 11 35 55 46 40 36 32 21 14 17 21 25 24 10 12 192 185 185 168 140 117 95 340 258 231 231 227 223 222 224 225 225 222 218 227 224 216 213 226 210
251 232 209 233 337 308 18 306 275 276 305 292 31 35 37 29 29 28 24 20 20 12 14 29 45 116 162 162 170 188 206 230 235 227 232 232 222 226 227 229 228 227 224 229 229 221 218 220 226
212 108 147 179 174 310 334 209 281 254 226 230 218 153 57 44 44 40 31 25 24 19 27 32 48 60 105 168 192 204 231 244 258 255 251 246 234 229 230 230 230 232 230 231 232 226 219 218 227
134 86 69 61 80 312 223 175 275 226 213 208 204 196 169 92 56 43 34 33 27 23 27 30 41 41 42 153 208 221 241 258 272 272 267 262 250 240 235 233 233 235 235 235 234 232 226 226 227
113 89 14 352 8 264 244 205 252 250 233 205 191 189 188 163 82 39 35 30 21 17 17 20 29 23 12 1 277 249 251 256 260 268 269 271 268 257 247 234 235 238 238 239 237 233 232 230 229
172 143 159 223 254 289 300 238 254 279 288 226 175 163 169 168 135 52 42 37 18 12 13 13 14 5 358 353 325 294 269 258 261 264 263 263 262 263 261 244 240 241 241 241 238 236 237 235 233
138 165 155 131 165 273 284 291 303 31 49 101 133 148 176 187 170 67 38 32 14 4 359 356 356 350 346 341 332 325 313 289 280 281 271 267 265 271 270 261 253 250 246 244 241 240 239 237 235
144 141 109 126 175 271 292 278 255 242 193 169 171 184 201 193 115 58 36 13 354 347 340 345 347 333 325 329 325 319 315 305 295 293 290 284 281 278 279 275 267 261 255 250 245 246 245 241 240
130 136 125 124 158 174 267 273 228 214 199 192 201 207 203 186 150 67 8 352 345 344 343 339 334 327 322 322 320 320 313 309 304 294 289 286 284 283 278 275 272 267 262 256 251 250 248 246 247
173 174 151 161 210 184 198 267 280 216 196 179 189 189 152 139 125 102 11 351 348 341 333 330 325 320 312 313 314 310 306 307 304 297 292 289 285 281 276 276 274 271 268 261 256 259 255 250 250